Hourly Data Report for October 02, 2013

All times are specified in Local Standard Time (LST). Add 1 hour to adjust for Daylight Saving Time where and when it is observed.

KAMLOOPS A
BRITISH COLUMBIA

50°42'09.000" N
120°26'55.000" W
345.30 m
1163781
71887
YKA

Download Data

Hourly Data (October 2013)
Hourly Data Report for October 2, 2013
Temp Definition
°C
Dew Point Temp Definition
°C
Rel Hum Definition
%
Wind Dir Definition
10's deg

Wind Spd Definition
km/h
Visibility Definition
km
Stn Press Definition
kPa
Hmdx Definition


Wind Chill Definition


Weather Definition


TIME
00:00 Legend Double Dagger 4.7 -0.1 71 30 4 64.4 97.71     LegendNANA
01:00 Legend Double Dagger 5.0 -0.8 66 31 3 64.4 97.79     Mainly Clear
02:00 Legend Double Dagger 2.3 -0.6 81 14 5 64.4 97.82     LegendNANA
03:00 Legend Double Dagger 1.9 -1.5 78 5 3 64.4 97.84     LegendNANA
04:00 Legend Double Dagger 1.8 -1.1 81 10 6 64.4 97.85     Mostly Cloudy
05:00 Legend Double Dagger 1.5 -0.8 85 9 10 64.4 97.86     LegendNANA
06:00 Legend Double Dagger 2.5 -0.8 79 5 4 64.4 97.91     LegendNANA
07:00 Legend Double Dagger 3.2 0.6 83 9 8 64.4 97.92     Mostly Cloudy
08:00 Legend Double Dagger 4.6 0.9 77 4 6 64.4 97.94     LegendNANA
09:00 Legend Double Dagger 6.0 1.2 71 10 3 64.4 97.93     LegendNANA
10:00 Legend Double Dagger 7.7 0.7 61 10 13 64.4 97.92     Cloudy
11:00 Legend Double Dagger 8.3 1.9 64 11 16 64.4 97.89     LegendNANA
12:00 Legend Double Dagger 10.0 2.4 59 13 14 64.4 97.85     LegendNANA
13:00 Legend Double Dagger 12.1 2.9 53 11 16 64.4 97.78     Mostly Cloudy
14:00 Legend Double Dagger 12.1 1.8 49 13 14 64.4 97.74     LegendNANA
15:00 Legend Double Dagger 12.6 1.9 48 11 6 64.4 97.73     LegendNANA
16:00 Legend Double Dagger 12.5 2.7 51 11 9 64.4 97.77     Mostly Cloudy
17:00 Legend Double Dagger 11.5 2.8 55 17 16 64.4 97.79     LegendNANA
18:00 Legend Double Dagger 10.8 3.2 59 28 7 64.4 97.86     LegendNANA
19:00 Legend Double Dagger 9.9 3.2 63 24 10 64.4 97.90     Cloudy
20:00 Legend Double Dagger 9.0 3.4 68 34 5 64.4 97.97     LegendNANA
21:00 Legend Double Dagger 7.6 2.7 71 13 1 64.4 98.04     LegendNANA
22:00 Legend Double Dagger 7.0 3.1 76 10 6 64.4 98.08     Mostly Cloudy
23:00 Legend Double Dagger 6.5 3.0 78 11 5 64.4 98.16     LegendNANA

Notes on Data Quality.

Legend

  • E = Estimated
  • M = Missing
  • NA = Not Available
  • ‡ = Partner data that is not subject to review by the National Climate Archives
Date modified: